Location: Pine Mountain Observatory
(43.7910°N, 120.9377°W)
Time: 16:17:34
(UTC-08:00)

Daily predictions for brighter satellites

Satellite Brightness Start Highest point End
(mag) Time Altitude Azimuth Time Altitude Azimuth Time Altitude Azimuth
Cosmos 1818 4.4 18:03:36 10° S 18:08:21 32° ESE 18:13:09 10° NE
Cosmos 2082 Rocket 4.1 18:04:06 10° WSW 18:09:03 30° NW 18:14:05 10° N
Cosmos 1484 Rocket 3.2 18:05:13 10° S 18:09:10 71° WSW 18:13:06 10° NNW
Meteor 1-18 Rocket 4.2 18:03:52 10° N 18:09:23 61° ENE 18:14:55 10° SSE
SJ-6B 3.6 18:07:05 10° SE 18:10:37 30° ENE 18:14:06 10° N
ATLAS CENTAUR R/B 3.9 18:07:44 10° W 18:10:58 19° NW 18:14:04 10° N
SL-16 R/B 2.2 18:06:50 10° NNW 18:12:31 68° ENE 18:18:09 10° SE
NOSS 2-2 (C) 3.8 18:09:15 10° SW 18:13:17 75° NW 18:18:04 10° NE
Cosmos 1340 3.9 18:11:49 10° NNE 18:14:51 22° ENE 18:17:50 10° ESE
YAOGAN 1 4.3 18:11:10 10° SSW 18:15:13 39° W 18:19:17 10° NNW
Cosmos 1992 Rocket 4.3 18:11:20 10° NNW 18:16:34 73° WSW 18:21:47 10° SSE
Nadezhda 1 Rocket 3.9 18:11:23 10° N 18:17:30 73° E 18:23:32 10° SSE
DNEPR-1 R/B 3.4 18:14:08 10° NNW 18:18:25 71° NE 18:22:38 10° SE
Resurs 01 Rocket 2.8 18:15:10 10° ESE 18:18:34 22° ENE 18:21:58 10° NNE
Cosmos 1238 Rocket 3.8 18:18:43 10° NNE 18:20:43 16° ENE 18:22:39 10° ESE
Cosmos 1782 Rocket 4.1 18:16:34 10° SSW 18:20:57 67° W 18:25:25 10° N
Cosmos 407 Rocket 3.7 18:16:43 10° S 18:21:46 51° ESE 18:26:53 10° NNE
Tiangong 2 1.8 18:20:13 10° W 18:23:12 46° SSW 18:26:11 10° ESE
DELTA 2 R/B (1) 4.1 18:18:11 10° W 18:23:40 56° S 18:29:09 10° ESE
Meteor 1-28 Rocket 3.2 18:20:39 10° NNE 18:24:27 83° E 18:28:16 10° S
BREEZE-M DEB (TANK) 4.0 18:15:30 10° WNW 18:27:07 77° SSW 18:30:28 10° SE
Meteor 1-20 Rocket 4.3 18:21:36 10° S 18:27:21 67° E 18:33:10 10° NNE
Cosmos 2322 Rocket 2.3 18:24:44 10° NNW 18:30:23 87° WSW 18:36:00 10° SSE
Cosmos 2181 Rocket 4.4 18:25:53 10° N 18:31:47 42° ENE 18:37:43 10° SE
COSMO-SKYMED 1 3.1 18:28:42 10° N 18:33:01 65° WNW 18:37:19 10° SSW
Cosmos 1300 Rocket 4.4 18:30:14 10° SSE 18:34:00 28° E 18:37:49 10° NNE
Cosmos 1536 4.3 18:32:37 10° SE 18:35:09 16° E 18:37:40 10° NE
Meteor 1-13 Rocket 4.5 18:32:55 10° N 18:38:15 45° ENE 18:43:36 10° SSE
Okean 1 3.3 18:35:14 10° N 18:39:18 72° E 18:43:21 10° SSE
Okean 2 Rocket 3.8 18:35:31 10° SSW 18:39:53 57° W 18:44:17 10° N
CZ-2D R/B 4.5 18:38:26 12° ESE 18:40:52 21° ENE 18:43:48 10° NNE
Resurs 1-3 4.4 18:37:10 10° SE 18:41:00 30° ENE 18:44:51 10° N
deb Kosmos-1763 4.2 18:39:16 10° SSW 18:43:03 80° WNW 18:46:52 10° NNE
Cosmos 2322 4.1 18:37:40 10° NNW 18:43:10 44° ENE 18:48:35 10° SE
Cosmos 1461 2.9 18:39:09 10° NW 18:43:10 77° WSW 18:47:15 10° SSE
Cosmos 1140 Rocket 4.0 18:42:08 10° SSE 18:46:45 35° ESE 18:51:25 10° NE
Cosmos 1190 Rocket 4.1 18:42:15 10° SSW 18:47:27 83° WNW 18:52:41 10° NNE
FENGYUN 3A 3.7 18:42:59 10° SSE 18:48:16 57° ENE 18:53:35 10° N
H-2A R/B 3.3 18:46:32 10° SE 18:49:53 33° ENE 18:53:17 10° N
Cosmos 1709 Rocket 3.9 18:46:42 10° S 18:52:52 68° E 18:59:00 10° NNE
Cosmos 1812 4.0 18:51:54 10° NNW 18:55:35 44° W 18:59:16 10° SSW
COSMOS 2428 3.5 18:51:05 10° N 18:56:08 31° NE 18:59:03 20° E
SAR-Lupe-4 4.4 18:55:00 23° ESE 18:56:13 29° ENE 18:59:21 10° N
SL-19 R/B 4.4 18:50:58 10° SSE 18:56:31 61° ENE 19:02:26 10° N
Spot 2 Rocket 3.6 18:52:11 10° SSE 18:57:05 53° ENE 19:02:02 10° N
Meteor 2-4 Rocket 4.0 18:52:11 10° N 18:57:28 41° ENE 19:02:34 10° SE
Cosmos 2151 Rocket 3.8 18:54:03 10° SSW 18:58:33 77° W 19:03:06 10° N
Cosmos 614 Rocket 4.5 18:54:25 10° SSE 18:58:57 34° ESE 19:03:30 10° NE
Cosmos 2292 Rocket 4.3 18:54:52 10° S 18:59:52 87° E 19:06:42 10° N
Helios 1A 3.8 18:58:08 22° ESE 18:59:52 30° ENE 19:03:31 10° N
HJ-1C 3.3 19:01:29 10° SSE 19:04:52 84° ENE 19:08:15 10° N
Okean 1 Rocket 3.3 19:00:40 10° SSE 19:04:56 46° E 19:09:15 10° NNE
Cosmos 2237 Rocket 3.9 19:01:42 10° N 19:05:02 15° NE 19:05:44 15° NE
Envisat 4.0 19:13:16 26° ENE 19:13:29 26° ENE 19:17:39 10° N
Meteor 1-11 Rocket 3.7 19:09:09 10° S 19:14:52 70° E 19:20:45 10° NNE
GEOS 3 Rocket 3.5 19:09:36 10° NE 19:14:52 80° SE 19:20:09 10° SW
Cosmos 1954 Rocket 3.9 19:09:58 10° SSW 19:15:08 84° ESE 19:20:24 10° NNE
USA 229 DEB 4.2 19:09:37 10° NNW 19:16:22 43° NE 19:19:44 27° E
USA 229 4.2 19:09:43 10° NNW 19:16:27 43° NE 19:19:48 27° E
Helios 1B rocket 3.7 19:20:32 25° SE 19:20:32 25° SE 19:22:41 10° SSE
Cosmos 2219 3.7 19:15:52 10° S 19:21:05 37° ESE 19:23:09 28° ENE
Cosmos 1633 2.8 19:17:49 10° SSW 19:21:30 72° W 19:25:12 10° N
Cosmos 2360 Rocket 2.2 19:16:50 10° NNW 19:22:31 85° WSW 19:28:11 10° SSE
Okean 1-7 Rocket 3.6 19:18:00 10° N 19:22:32 60° E 19:25:47 18° SSE
Cosmos 1602 3.8 19:19:05 10° SSW 19:22:57 76° W 19:26:52 10° N
Cosmos 2219 Rocket 3.0 19:20:31 10° N 19:25:25 30° NE 19:25:54 30° ENE
Cosmos 1025 Rocket 3.0 19:27:35 10° N 19:31:54 56° E 19:32:29 51° ESE
SL-16 R/B 4.2 19:34:20 10° NNE 19:36:07 13° NNE 19:36:07 13° NNE
ALOS 3.3 19:32:44 10° S 19:37:14 47° W 19:41:46 10° NNW
Spot 1 3.8 19:37:58 45° SSE 19:39:10 84° ENE 19:43:18 10° NNW
BREEZE-M DEB (TANK) 3.9 19:37:08 10° SW 19:39:11 25° SSW 19:39:11 25° SSW
Cosmos 2333 Rocket 2.8 19:46:11 10° NNW 19:51:05 38° NE 19:51:05 38° NE
Resurs 01 Rocket 3.0 19:50:43 10° SSW 19:54:49 38° W 19:58:57 10° NNW
BREEZE-M DEB (TANK) 3.6 19:51:30 10° WNW 19:54:56 88° SSW 19:56:45 48° ESE
Cosmos 1741 Rocket 3.9 19:50:27 10° SSW 19:55:40 89° ESE 19:59:13 21° NNE
Tiangong 2 4.0 19:57:36 10° WSW 19:58:33 13° SW 19:58:33 13° SW
NOSS 0 Rocket 4.2 19:57:36 10° NNW 20:03:16 49° NE 20:03:16 49° NE
Cosmos 1570 Rocket 4.5 20:02:42 10° NNW 20:07:50 59° WSW 20:09:45 36° SSW
Genesis I 4.3 20:04:06 10° NW 20:06:58 44° WNW 20:06:58 44° WNW
Gbstr 26 Del rocket 4.4 20:07:23 10° SW 20:09:10 27° SW 20:09:10 27° SW
Cosmos 1610 Rocket 4.3 20:05:02 10° S 20:11:16 81° E 20:17:29 10° N
Cosmos 1536 4.2 20:07:33 10° SW 20:11:17 37° WNW 20:15:01 10° N
Meteor 1-5 Rocket 4.4 20:08:25 10° SSW 20:14:23 75° WNW 20:20:20 10° N
COSMOS 2428 3.6 20:35:11 10° NW 20:40:32 43° WSW 20:41:09 42° SW
Cosmos 2237 Rocket 3.4 20:44:20 10° NNW 20:47:35 35° NNW 20:47:35 35° NNW
Envisat 4.4 20:53:28 36° WNW 20:53:28 36° WNW 20:57:06 10° NNW
USA 229 DEB 4.4 21:00:38 10° NW 21:07:13 50° WSW 21:07:13 50° WSW
USA 229 4.4 21:00:44 10° NW 21:07:17 50° WSW 21:07:17 50° WSW
Cosmos 2219 Rocket 3.7 21:04:14 10° NW 21:07:39 33° WNW 21:07:39 33° WNW
SL-16 R/B 4.4 21:16:29 10° NNW 21:18:00 19° NNW 21:18:00 19° NNW
ATLAS 2AS CENTAUR R/B 4.2 21:18:58 10° NNW 21:24:18 32° N 21:24:18 32° N
Cosmos 2333 Rocket 4.3 21:30:36 10° NW 21:33:07 23° WNW 21:33:07 23° WNW
